星链-1096 (STARLINK-1096 )

导读 | 星芒AI

STARLINK-1096 是 SpaceX Starlink 项目中的第 1096 颗卫星,属于低轨卫星互联网星座的一部分。该卫星于 2023 年发射,旨在为全球用户提供高速、低延迟的互联网服务,尤其关注网络覆盖不足的地区。它采用先进的通信技术,支持 Ku 和 Ka 频段,具备自动避撞功能,以确保在轨安全。Starlink 卫星群的部署加速了全球宽带接入的普及,同时也在科研、应急通信等领域发挥重要作用。

基本信息
目录编号:
44942
目录名称:
STARLINK-1096
国际标识:
2020-001AE
轨道中心:
EARTH
卫星名称:
星链-1096
卫星全名:
星链-1096 (STARLINK-1096 )
卫星状态:
已陨落 最后检测时间 2025-11-28
发射日期:
2020-01-07 UTC
国别 :
美国 (US)
星等 :
--
轨道信息
数据来源 国际轨道数据
星历时间: 2025-11-28T07:10:40+0800
轨道信息已过期15天
半长轴: 6527.349km
偏心率: 0.0004894
轨道倾角: 52.965°
近地点辐角 253.833°
升交点赤经 162.103°
平近点角 106.218°
近地点: 146.019km
远地点: 152.409km
周期: 87.471分钟
每日圈数: 16.462567
详细信息
固有亮度:
5
最大亮度:
2.5
卫星平台:
Starlink V1.0
覆盖范围:
全球
运营商:
太空探索技术公司
运营商所在国:
美国
制造商(研发单位):
太空探索技术公司
制造商所在国:
美国
使用方式:
暂无
卫星简介
星链(Starlink)计划是由太空探索技术公司(SpaceX)提出的一个巨型低轨卫星互联网星座项目,计划在2019年至2024年间在太空搭建由约1.2万颗卫星组成的“星链”网络,其中1584颗将部署在地球上空550千米处的近地轨道,并从2020年开始工作。该卫星仍在工作。